Weather History for Morris, MN

Change the Weather History Date:

Thursday, September 20, 2012

  Actual Average Record
Temperature  
Mean Temperature 54 °F -  
Max Temperature 66 °F 66 °F 84 °F (2005)
Min Temperature 41 °F 43 °F 28 °F (1999)
Degree Days  
Heating Degree Days 12    
Growing Degree Days 4 (Base 50)    
Moisture  
Dew Point 33 °F    
Average Humidity 46    
Maximum Humidity 76    
Minimum Humidity 26    
Precipitation  
Precipitation 0.00 in - - ()
Sea Level Pressure  
Sea Level Pressure 29.91 in    
Wind  
Wind Speed 9 mph (WNW)    
Max Wind Speed 22 mph    
Max Gust Speed 29 mph    
Visibility 10 miles    
Events Rain    
Averages and records for this station are not official NWS values.
T = Trace of Precipitation, MM = Missing Value Source: NWS Daily Summary

Daily Weather History Graph

Daily Weather History Graph

Search for Another Location

Airport:

Trip Planner

Search our weather history database for the weather conditions in past years. The results will help you decide how hot, cold, wet, or windy it might be!

Date:

Astronomy

Sep. 20, 2012 Rise Set
Actual Time 7:09 AM CDT 7:24 PM CDT
Civil Twilight 6:39 AM CDT 7:53 PM CDT
Nautical Twilight 6:04 AM CDT 8:28 PM CDT
Astronomical Twilight 5:28 AM CDT 9:04 PM CDT
Moon 12:46 PM CDT (9/20) 10:09 PM CDT (9/20)
Length of Visible Light 13h 14m
Length of Day
12h 15m
Waxing Crescent, 27% of the Moon is Illuminated
Sep 20
Waxing Crescent
Sep 22
First Quarter
Sep 29
Full
Oct 8
Last Quarter
Oct 15
New

Hourly Weather History & Observations

Time (CDT) Temp. Windchill Dew Point Humidity Pressure Visibility Wind Dir Wind Speed Gust Speed Precip Events Conditions
12:11 AM 46.4 °F 42.9 °F 32.0 °F 57% 29.88 in 10.0 mi WNW 6.9 mph - N/A   Clear
12:31 AM 46.4 °F 42.4 °F 32.0 °F 57% 29.89 in 10.0 mi NW 8.1 mph - N/A   Clear
12:51 AM 46.4 °F 41.9 °F 32.0 °F 57% 29.89 in 10.0 mi WNW 9.2 mph - N/A   Clear
1:11 AM 46.4 °F 42.4 °F 32.0 °F 57% 29.90 in 10.0 mi NW 8.1 mph - N/A   Clear
1:31 AM 46.4 °F 42.9 °F 33.8 °F 62% 29.90 in 10.0 mi NW 6.9 mph - N/A   Clear
1:51 AM 44.6 °F 40.7 °F 32.0 °F 61% 29.91 in 10.0 mi NW 6.9 mph - N/A   Clear
2:11 AM 42.8 °F 38.6 °F 32.0 °F 66% 29.91 in 10.0 mi WNW 6.9 mph - N/A   Clear
2:31 AM 41.0 °F 37.1 °F 32.0 °F 70% 29.91 in 10.0 mi NW 5.8 mph - N/A   Clear
2:51 AM 41.0 °F 37.1 °F 32.0 °F 70% 29.91 in 10.0 mi NW 5.8 mph - N/A   Clear
3:11 AM 41.0 °F 38.0 °F 32.0 °F 70% 29.91 in 10.0 mi WNW 4.6 mph - N/A   Clear
3:31 AM 41.0 °F 38.0 °F 32.0 °F 70% 29.91 in 10.0 mi WNW 4.6 mph - N/A   Clear
3:51 AM 41.0 °F 36.4 °F 32.0 °F 70% 29.91 in 10.0 mi WNW 6.9 mph - N/A   Clear
4:11 AM 42.8 °F 38.6 °F 32.0 °F 66% 29.91 in 10.0 mi WNW 6.9 mph - N/A   Clear
4:31 AM 42.8 °F 38.6 °F 33.8 °F 70% 29.91 in 10.0 mi West 6.9 mph - N/A   Clear
4:51 AM 42.8 °F 38.6 °F 32.0 °F 66% 29.92 in 10.0 mi WNW 6.9 mph - N/A   Clear
5:11 AM 41.0 °F 37.1 °F 32.0 °F 70% 29.92 in 10.0 mi WNW 5.8 mph - N/A   Clear
5:31 AM 41.0 °F 37.1 °F 32.0 °F 70% 29.93 in 10.0 mi WNW 5.8 mph - N/A   Clear
5:51 AM 41.0 °F 37.1 °F 32.0 °F 70% 29.93 in 10.0 mi WNW 5.8 mph - N/A   Clear
6:11 AM 41.0 °F 38.0 °F 33.8 °F 76% 29.94 in 10.0 mi West 4.6 mph - N/A   Clear
6:31 AM 42.8 °F 40.1 °F 33.8 °F 70% 29.94 in 10.0 mi West 4.6 mph - N/A   Clear
6:51 AM 42.8 °F 40.1 °F 33.8 °F 70% 29.94 in 10.0 mi WNW 4.6 mph - N/A   Clear
7:31 AM 42.8 °F 38.6 °F 33.8 °F 70% 29.96 in 10.0 mi West 6.9 mph - N/A   Clear
8:31 AM 48.2 °F - 33.8 °F 58% 29.95 in 10.0 mi WNW 8.1 mph - N/A   Clear
8:51 AM 51.8 °F - 33.8 °F 50% 29.96 in 10.0 mi WNW 10.4 mph - N/A   Clear
9:31 AM 55.4 °F - 33.8 °F 44% 29.96 in 10.0 mi WNW 10.4 mph - N/A   Clear
9:51 AM 55.4 °F - 33.8 °F 44% 29.96 in 10.0 mi WNW 9.2 mph - N/A   Clear
10:11 AM 57.2 °F - 35.6 °F 44% 29.95 in 10.0 mi NW 8.1 mph - N/A   Clear
10:31 AM 57.2 °F - 33.8 °F 41% 29.96 in 10.0 mi WNW 8.1 mph - N/A   Clear
11:11 AM 60.8 °F - 33.8 °F 36% 29.96 in 10.0 mi WNW 8.1 mph 18.4 mph N/A   Clear
11:31 AM 62.6 °F - 33.8 °F 34% 29.96 in 10.0 mi NW 10.4 mph - N/A   Clear
11:51 AM 62.6 °F - 33.8 °F 34% 29.96 in 10.0 mi NW 10.4 mph - N/A   Clear
12:11 PM 62.6 °F - 33.8 °F 34% 29.95 in 10.0 mi NW 12.7 mph 18.4 mph N/A   Clear
12:31 PM 64.4 °F - 33.8 °F 32% 29.95 in 10.0 mi NW 15.0 mph 24.2 mph N/A   Clear
12:51 PM 64.4 °F - 32.0 °F 30% 29.95 in 10.0 mi NW 18.4 mph 24.2 mph N/A   Clear
1:11 PM 64.4 °F - 32.0 °F 30% 29.95 in 10.0 mi NNW 15.0 mph 23.0 mph N/A   Clear
1:31 PM 66.2 °F - 32.0 °F 28% 29.94 in 10.0 mi NW 17.3 mph 25.3 mph N/A   Clear
1:51 PM 66.2 °F - 32.0 °F 28% 29.94 in 10.0 mi NNW 18.4 mph 24.2 mph N/A   Clear
2:11 PM 66.2 °F - 32.0 °F 28% 29.93 in 10.0 mi NNW 17.3 mph - N/A   Clear
2:31 PM 66.2 °F - 32.0 °F 28% 29.92 in 10.0 mi WNW 15.0 mph 24.2 mph N/A   Clear
2:51 PM 66.2 °F - 32.0 °F 28% 29.92 in 10.0 mi WNW 9.2 mph 21.9 mph N/A   Clear
3:11 PM 66.2 °F - 33.8 °F 30% 29.92 in 10.0 mi WNW 16.1 mph 20.7 mph N/A   Clear
3:31 PM 66.2 °F - 32.0 °F 28% 29.91 in 10.0 mi NW 9.2 mph - N/A   Clear
3:51 PM 66.2 °F - 32.0 °F 28% 29.90 in 10.0 mi NW 9.2 mph - N/A   Clear
4:11 PM 66.2 °F - 30.2 °F 26% 29.90 in 10.0 mi WNW 11.5 mph 18.4 mph N/A   Clear
4:31 PM 66.2 °F - 32.0 °F 28% 29.89 in 10.0 mi NW 9.2 mph 16.1 mph N/A   Clear
4:51 PM 66.2 °F - 30.2 °F 26% 29.89 in 10.0 mi NW 13.8 mph 18.4 mph N/A   Clear
5:11 PM 66.2 °F - 32.0 °F 28% 29.88 in 10.0 mi NW 9.2 mph - N/A   Clear
5:31 PM 64.4 °F - 30.2 °F 28% 29.88 in 10.0 mi NW 13.8 mph - N/A   Clear
5:51 PM 64.4 °F - 30.2 °F 28% 29.87 in 10.0 mi WNW 10.4 mph - N/A   Clear
6:11 PM 64.4 °F - 30.2 °F 28% 29.87 in 10.0 mi NW 10.4 mph - N/A   Clear
6:31 PM 62.6 °F - 32.0 °F 32% 29.87 in 10.0 mi WNW 5.8 mph - N/A   Clear
6:51 PM 62.6 °F - 32.0 °F 32% 29.87 in 10.0 mi WNW 3.5 mph - N/A   Clear
7:11 PM 62.6 °F - 30.2 °F 30% 29.87 in 10.0 mi West 8.1 mph - N/A   Clear
7:31 PM 62.6 °F - 30.2 °F 30% 29.87 in 10.0 mi West 10.4 mph - N/A   Scattered Clouds
7:51 PM 62.6 °F - 30.2 °F 30% 29.87 in 10.0 mi West 13.8 mph 20.7 mph N/A   Mostly Cloudy
8:11 PM 62.6 °F - 32.0 °F 32% 29.88 in 10.0 mi West 13.8 mph 18.4 mph N/A   Mostly Cloudy
8:31 PM 60.8 °F - 33.8 °F 36% 29.88 in 10.0 mi West 21.9 mph 28.8 mph N/A Rain Light Rain
8:51 PM 59.0 °F - 37.4 °F 45% 29.88 in 10.0 mi WNW 10.4 mph - N/A Rain Light Rain
9:11 PM 59.0 °F - 35.6 °F 42% 29.88 in 10.0 mi WNW 9.2 mph - N/A   Scattered Clouds
9:31 PM 57.2 °F - 35.6 °F 44% 29.88 in 10.0 mi WNW 8.1 mph - N/A   Mostly Cloudy
9:51 PM 57.2 °F - 35.6 °F 44% 29.87 in 10.0 mi WNW 6.9 mph - N/A   Overcast
10:11 PM 59.0 °F - 35.6 °F 42% 29.87 in 10.0 mi WNW 8.1 mph - N/A   Mostly Cloudy
10:31 PM 57.2 °F - 35.6 °F 44% 29.87 in 10.0 mi WNW 5.8 mph - N/A   Mostly Cloudy
10:51 PM 57.2 °F - 37.4 °F 48% 29.87 in 10.0 mi WNW 4.6 mph - N/A   Overcast
11:11 PM 57.2 °F - 37.4 °F 48% 29.87 in 10.0 mi WNW 5.8 mph - N/A   Mostly Cloudy
11:31 PM 55.4 °F - 37.4 °F 51% 29.87 in 10.0 mi West 5.8 mph - N/A   Scattered Clouds
11:51 PM 55.4 °F - 37.4 °F 51% 29.88 in 10.0 mi NNW 10.4 mph 16.1 mph N/A   Scattered Clouds